Clovis, NM

7:00 AM MDT on March 25, 2017 (GMT -0600)
Clovis Municipal

Weather History for KCVN - September, 2012

Change the Weather History Date:

Wednesday, September 19, 2012

  Actual Average Record
Temperature  
Mean Temperature 71 °F -  
Max Temperature 89 °F 79 °F 96 °F (1930)
Min Temperature 53 °F 53 °F 36 °F (1971)
Cooling Degree Days 6    
Growing Degree Days 21 (Base 50)    
Moisture  
Dew Point 39 °F    
Average Humidity 37    
Maximum Humidity 72    
Minimum Humidity 12    
Precipitation  
Precipitation 0.00 in - - ()
Sea Level Pressure  
Sea Level Pressure 30.14 in    
Wind  
Wind Speed 11 mph (WSW)    
Max Wind Speed 20 mph    
Max Gust Speed 25 mph    
Visibility 10 miles    
Events      
Averages and records for this station are not official NWS values.
T = Trace of Precipitation, MM = Missing Value Source: NWS Daily Summary

Daily Weather History Graph

Daily Weather History Graph

Search for Another Location

Airport or City:

Trip Planner

Search our weather history database for the weather conditions in past years. The results will help you decide how hot, cold, wet, or windy it might be!

Date:

Astronomy

Sep. 19, 2012 Rise Set
Actual Time 6:38 AM MDT 6:52 PM MDT
Civil Twilight 6:13 AM MDT 7:17 PM MDT
Nautical Twilight 5:44 AM MDT 7:46 PM MDT
Astronomical Twilight 5:14 AM MDT 8:16 PM MDT
Moon 10:38 AM MDT (9/19) 9:17 PM MDT (9/19)
Length of Visible Light 13h 04m
Length of Day
12h 13m
Waxing Crescent, 17% of the Moon is Illuminated
Sep 19
Waxing Crescent
Sep 22
First Quarter
Sep 29
Full
Oct 8
Last Quarter
Oct 15
New

Hourly Weather History & Observations

Time (MDT) Temp. Dew Point Humidity Pressure Visibility Wind Dir Wind Speed Gust Speed Precip Events Conditions
12:15 AM 57.2 °F 39.2 °F 51% 30.18 in 10.0 mi SW 10.4 mph - N/A   Clear
12:35 AM 57.2 °F 39.2 °F 51% 30.18 in 10.0 mi WSW 9.2 mph - N/A   Clear
12:55 AM 55.4 °F 39.2 °F 54% 30.18 in 10.0 mi WSW 9.2 mph - N/A   Clear
1:15 AM 55.4 °F 39.2 °F 54% 30.17 in 10.0 mi WSW 10.4 mph - N/A   Clear
1:35 AM 55.4 °F 41.0 °F 58% 30.17 in 10.0 mi WSW 9.2 mph - N/A   Clear
1:55 AM 55.4 °F 39.2 °F 54% 30.17 in 10.0 mi West 6.9 mph - N/A   Clear
2:15 AM 55.4 °F 41.0 °F 58% 30.16 in 10.0 mi WSW 11.5 mph - N/A   Clear
2:35 AM 57.2 °F 42.8 °F 59% 30.17 in 10.0 mi WSW 8.1 mph - N/A   Clear
2:55 AM 57.2 °F 42.8 °F 59% 30.16 in 10.0 mi WSW 9.2 mph - N/A   Clear
3:15 AM 57.2 °F 42.8 °F 59% 30.16 in 10.0 mi SW 9.2 mph - N/A   Clear
3:55 AM 53.6 °F 42.8 °F 67% 30.16 in 10.0 mi WSW 10.4 mph - N/A   Clear
4:15 AM - - N/A% 30.15 in 10.0 mi WSW 9.2 mph - N/A   Clear
4:35 AM 55.4 °F 44.6 °F 67% 30.16 in 10.0 mi WSW 9.2 mph - N/A   Clear
4:55 AM 55.4 °F 44.6 °F 67% 30.16 in 10.0 mi WSW 9.2 mph - N/A   Clear
5:15 AM 53.6 °F 44.6 °F 72% 30.16 in 10.0 mi WSW 9.2 mph - N/A   Clear
5:35 AM 55.4 °F 44.6 °F 67% 30.16 in 10.0 mi WSW 10.4 mph - N/A   Clear
5:55 AM 55.4 °F 46.4 °F 72% 30.16 in 10.0 mi WSW 8.1 mph - N/A   Clear
6:15 AM 55.4 °F 46.4 °F 72% 30.17 in 10.0 mi WSW 6.9 mph - N/A   Clear
6:35 AM 55.4 °F 46.4 °F 72% 30.17 in 10.0 mi SW 8.1 mph - N/A   Clear
7:15 AM 55.4 °F 46.4 °F 72% 30.17 in 10.0 mi WSW 8.1 mph - N/A   Clear
7:35 AM 57.2 °F 48.2 °F 72% 30.18 in 10.0 mi SW 11.5 mph - N/A   Clear
7:55 AM 60.8 °F 48.2 °F 63% 30.18 in 10.0 mi SW 11.5 mph - N/A   Clear
8:15 AM 62.6 °F 48.2 °F 59% 30.18 in 10.0 mi SW 13.8 mph - N/A   Clear
8:55 AM 66.2 °F 51.8 °F 60% 30.18 in 10.0 mi SW 17.3 mph 23.0 mph N/A   Clear
9:15 AM 68.0 °F 51.8 °F 56% 30.18 in 10.0 mi WSW 15.0 mph - N/A   Clear
9:35 AM 71.6 °F 51.8 °F 50% 30.18 in 10.0 mi SW 16.1 mph 20.7 mph N/A   Clear
9:55 AM 73.4 °F 50.0 °F 44% 30.18 in 10.0 mi SW 16.1 mph 20.7 mph N/A   Clear
10:15 AM 75.2 °F 50.0 °F 41% 30.18 in 10.0 mi WSW 16.1 mph - N/A   Clear
10:35 AM 77.0 °F 46.4 °F 34% 30.18 in 10.0 mi West 16.1 mph - N/A   Clear
10:55 AM 78.8 °F 46.4 °F 32% 30.18 in 10.0 mi West 16.1 mph 21.9 mph N/A   Clear
11:15 AM 80.6 °F 44.6 °F 28% 30.17 in 10.0 mi West 16.1 mph 21.9 mph N/A   Clear
11:35 AM 82.4 °F 42.8 °F 25% 30.17 in 10.0 mi WSW 16.1 mph 20.7 mph N/A   Clear
11:55 AM 82.4 °F 41.0 °F 23% 30.16 in 10.0 mi West 15.0 mph 20.7 mph N/A   Clear
12:15 PM 84.2 °F 39.2 °F 20% 30.16 in 10.0 mi West 13.8 mph 21.9 mph N/A   Clear
12:35 PM 84.2 °F 37.4 °F 19% 30.15 in 10.0 mi West 17.3 mph 21.9 mph N/A   Clear
12:55 PM 86.0 °F 39.2 °F 19% 30.15 in 10.0 mi WSW 13.8 mph 20.7 mph N/A   Clear
1:15 PM 87.8 °F 37.4 °F 17% 30.14 in 10.0 mi WSW 11.5 mph 20.7 mph N/A   Clear
1:35 PM 87.8 °F 37.4 °F 17% 30.13 in 10.0 mi West 15.0 mph - N/A   Clear
1:55 PM 87.8 °F 35.6 °F 16% 30.12 in 10.0 mi SW 13.8 mph 20.7 mph N/A   Clear
2:15 PM 89.6 °F 33.8 °F 14% 30.11 in 10.0 mi WSW 16.1 mph 25.3 mph N/A   Clear
2:35 PM 89.6 °F 33.8 °F 14% 30.11 in 10.0 mi West 15.0 mph 23.0 mph N/A   Clear
2:55 PM 89.6 °F 33.8 °F 14% 30.10 in 10.0 mi WSW 19.6 mph 23.0 mph N/A   Clear
3:15 PM 89.6 °F 33.8 °F 14% 30.09 in 10.0 mi SW 15.0 mph 20.7 mph N/A   Clear
3:35 PM 89.6 °F 32.0 °F 13% 30.09 in 10.0 mi WSW 12.7 mph 21.9 mph N/A   Clear
3:55 PM 89.6 °F 32.0 °F 13% 30.09 in 10.0 mi WSW 11.5 mph 21.9 mph N/A   Clear
4:15 PM 89.6 °F 32.0 °F 13% 30.08 in 10.0 mi WSW 10.4 mph 20.7 mph N/A   Clear
4:35 PM 89.6 °F 30.2 °F 12% 30.08 in 10.0 mi SW 12.7 mph - N/A   Clear
4:55 PM 89.6 °F 30.2 °F 12% 30.07 in 10.0 mi SW 12.7 mph 16.1 mph N/A   Clear
5:15 PM 89.6 °F 32.0 °F 13% 30.07 in 10.0 mi SW 11.5 mph - N/A   Clear
5:35 PM 89.6 °F 30.2 °F 12% 30.07 in 10.0 mi West 11.5 mph - N/A   Clear
5:55 PM 87.8 °F 28.4 °F 12% 30.07 in 10.0 mi Calm Calm - N/A   Clear
6:15 PM 87.8 °F 30.2 °F 13% 30.07 in 10.0 mi West 5.8 mph - N/A   Clear
6:35 PM 84.2 °F 30.2 °F 14% 30.08 in 10.0 mi WSW 4.6 mph - N/A   Clear
6:55 PM 80.6 °F 32.0 °F 17% 30.08 in 10.0 mi SW 5.8 mph - N/A   Clear
7:15 PM 77.0 °F 35.6 °F 22% 30.08 in 10.0 mi SW 5.8 mph - N/A   Clear
7:35 PM 73.4 °F 35.6 °F 25% 30.08 in 10.0 mi SW 4.6 mph - N/A   Clear
7:55 PM 73.4 °F 33.8 °F 23% 30.10 in 10.0 mi SW 9.2 mph - N/A   Clear
8:15 PM 69.8 °F 35.6 °F 28% 30.10 in 10.0 mi SSW 10.4 mph - N/A   Clear
8:35 PM 69.8 °F 35.6 °F 28% 30.11 in 10.0 mi SW 9.2 mph - N/A   Clear
8:55 PM 68.0 °F 35.6 °F 30% 30.11 in 10.0 mi SW 9.2 mph - N/A   Clear
9:15 PM 68.0 °F 35.6 °F 30% 30.12 in 10.0 mi SW 9.2 mph - N/A   Clear
9:35 PM 66.2 °F 35.6 °F 32% 30.12 in 10.0 mi SW 8.1 mph - N/A   Clear
9:55 PM 69.8 °F 33.8 °F 27% 30.12 in 10.0 mi WSW 6.9 mph - N/A   Clear
10:35 PM 66.2 °F 35.6 °F 32% 30.14 in 10.0 mi SSE 10.4 mph - N/A   Clear
10:55 PM 62.6 °F 35.6 °F 37% 30.14 in 10.0 mi SSW 5.8 mph - N/A   Clear
11:15 PM 62.6 °F 35.6 °F 37% 30.13 in 10.0 mi SW 5.8 mph - N/A   Clear
11:35 PM 64.4 °F 35.6 °F 34% 30.14 in 10.0 mi South 3.5 mph - N/A   Clear
11:55 PM 64.4 °F 35.6 °F 34% 30.14 in 10.0 mi SW 5.8 mph - N/A   Clear